Location: Biltmore Gardens
(41.6070°N, 83.4666°W)
Time: 10:29:47
(UTC+00:00)

Cosmos 2344 - Pass Details

Date: 25 October 2020
Orbit: 1246 x 2997 km, 63.3° (Epoch: 25 November)

Event Time Altitude Azimuth Distance (km) Brightness Sun altitude
Exits shadow 07:26:27 21° 79° (E) 2,486 5.4 -49.5°
Drops below altitude 10° 07:29:44 10° 57° (ENE) 3,275 6.2 -49.0°
Sets 07:33:07 0° 45° (NE) 4,346 7.0 -48.5°
